Regional Weather Roundup
Issued by NWS Cleveland, OH

Home | Current Version | Previous Version | Graphics & Text | Print | Product List | Glossary On
Versions: 1 2 3 4 5 6 7 8 9 10 11 12 13 14 15 16 17 18 19 20 21 22 23 24 25 26 27 28 29 30 31 32 33 34 35 36 37 38 39 40 41 42 43 44 45 46 47 48 49 50
095
ASUS41 KCLE 280502
RWRCLE
OHIO REGIONAL WEATHER ROUNDUP
NATIONAL WEATHER SERVICE CLEVELAND, OH
100 AM EDT WED SEP 28 2016

NOTE: "FAIR" INDICATES FEW OR NO CLOUDS BELOW 12,000 FEET WITH NO
SIGNIFICANT WEATHER AND/OR OBSTRUCTIONS TO VISIBILITY.

OHZ001>008-015>018-024>027-034-035-043-044-280600-
   NORTHWEST OHIO

CITY           SKY/WX    TMP DP  RH WIND       PRES   REMARKS
DEFIANCE       MOCLDY    49  44  83 CALM      29.82S
FINDLAY        MOCLDY    53  44  71 S5        29.82S
TOLEDO EXPRESS PTCLDY    46  46 100 CALM      29.81S
TOLEDO EXEC    PTCLDY    50  44  80 CALM      29.83S
LIMA           PTCLDY    56  49  77 S7        29.82F
$$

OHZ009>014-019>023-028>033-038-089-280600-
   NORTHEAST OHIO

CITY           SKY/WX    TMP DP  RH WIND       PRES   REMARKS
CLE-HOPKINS    PTCLDY    62  43  49 S9        29.86F
CLE-LAKEFRONT  CLEAR     63  43  48 S10       29.83F
CUY CO. ARPT   NOT AVBL
LORAIN-ELYRIA  PTCLDY    53  43  68 S5        29.85S
ASHTABULA      CLEAR     52  45  77 S6        29.88S
AKRON-CANTON   CLOUDY    59  42  53 S8        29.88S
WOOSTER        MOCLDY    56  44  64 S5        29.88S
MANSFIELD      CLEAR     58  45  62 S9        29.86S
YOUNGSTOWN     PTCLDY    58  40  51 S9        29.89S
$$

OHZ042-051>053-060>062-070>072-077>081-280600-
  SOUTHWEST OHIO

CITY           SKY/WX    TMP DP  RH WIND       PRES   REMARKS
CINC-COVINGTON CLEAR     58  48  69 S8        29.88S
CINC-LUNKEN    CLEAR     56  52  86 S5        29.89S
HAMILTON       CLEAR     59  48  67 SW5       29.87F
DAYTON         CLEAR     59  47  64 S10       29.86F
WRIGHT-PAT AFB CLEAR     59  47  64 S7        29.85F
DAYTON GENERAL CLEAR     56  46  69 S9        29.86F
WILMINGTON     PTCLDY    57  47  69 S6        29.88S
$$

OHZ036-037-039>041-045>050-054>059-063>069-073>076-082>088-280600-
  CENTRAL AND SOUTHEAST OHIO

CITY           SKY/WX    TMP DP  RH WIND       PRES   REMARKS
COLUMBUS       MOCLDY    61  45  55 SE3       29.87S
OSU AIRPORT    CLEAR     59  45  59 S7        29.86F
BOLTON FIELD   NOT AVBL
RICKENBACK AFB NOT AVBL
NEWARK         CLEAR     50  45  83 CALM      29.88F
MARION         CLEAR     56  45  66 S9        29.85S
LANCASTER      CLEAR     52  46  80 SE5       29.89S
ZANESVILLE     CLEAR     51  44  77 CALM      29.90S
NEW PHILLY     CLEAR     51  45  79 SE3       29.90S
$$




USA.gov is the U.S. government's official web portal to all federal, state and local government web resources and services.